Location: Grums
(59.3529°N, 13.1129°E)
Time: 00:22:47
(UTC+01:00)

SEEDS - Pass Details

Date: 30 November 2021
Orbit: 584 x 600 km, 97.6° (Epoch: 27 January)

Event Time Altitude Azimuth Distance (km) Brightness Sun altitude
Rises 17:16:55 0° 222° (SW) 2,830 ? -13.8°
Reaches altitude 10° 17:20:20 10° 252° (WSW) 1,930 ? -14.2°
Maximum altitude 17:22:08 12° 278° (W) 1,774 ? -14.4°
Drops below altitude 10° 17:23:56 10° 303° (WNW) 1,932 ? -14.6°
Sets 17:27:22 0° 334° (NNW) 2,836 ? -15.0°
